timestamp,wind_dir_avg,wind_spd_avg,wind_spd_max_dir,wind_spd_gust,battery_voltage,lat,long
2020-11-10 00:04:01+00:00,262.0,5.5,261.0,6.23,12.57,47.59359,-54.27349
2020-11-10 00:14:01+00:00,258.0,5.31,257.0,5.8,12.49,47.59359,-54.27349
2020-11-10 00:24:01+00:00,261.0,5.43,262.0,5.85,12.49,47.59359,-54.27349
2020-11-10 00:34:01+00:00,262.0,4.6,263.0,5.0,12.49,47.59359,-54.27349
2020-11-10 00:44:01+00:00,258.0,5.02,256.0,5.74,12.49,47.59359,-54.27349
2020-11-10 00:54:01+00:00,266.0,3.89,260.0,4.71,12.49,47.59359,-54.27349
2020-11-10 01:04:01+00:00,277.0,4.26,278.0,4.82,12.49,47.59359,-54.27349
2020-11-10 01:14:01+00:00,275.0,4.99,277.0,5.48,12.49,47.59359,-54.27349
2020-11-10 01:24:01+00:00,279.0,4.46,278.0,5.36,12.49,47.59359,-54.27349
2020-11-10 01:34:01+00:00,274.0,5.07,274.0,6.07,12.49,47.59359,-54.27349
2020-11-10 01:44:01+00:00,268.0,5.0,269.0,5.58,12.49,47.59359,-54.27349
2020-11-10 01:54:01+00:00,268.0,4.47,267.0,5.34,12.49,47.59359,-54.27349
2020-11-10 02:04:01+00:00,268.0,5.12,271.0,5.82,12.49,47.59359,-54.27349
2020-11-10 02:14:01+00:00,278.0,6.04,278.0,7.07,12.49,47.59359,-54.27349
2020-11-10 02:24:01+00:00,280.0,5.28,276.0,6.09,12.49,47.59359,-54.27349
2020-11-10 02:34:01+00:00,278.0,4.44,280.0,4.85,12.49,47.59359,-54.27349
2020-11-10 02:44:01+00:00,280.0,5.47,282.0,6.09,12.49,47.59359,-54.27349
2020-11-10 02:54:01+00:00,276.0,4.38,276.0,4.77,12.49,47.59359,-54.27349
2020-11-10 03:04:01+00:00,279.0,3.24,276.0,3.66,12.49,47.59359,-54.27349
2020-11-10 03:14:01+00:00,284.0,3.52,287.0,3.93,12.41,47.59359,-54.27349
2020-11-10 03:24:01+00:00,302.0,2.28,299.0,2.76,12.41,47.59359,-54.27349
2020-11-10 03:34:01+00:00,303.0,2.57,303.0,2.86,12.41,47.59359,-54.27349
2020-11-10 03:44:01+00:00,281.0,1.65,308.0,2.24,12.41,47.59359,-54.27349
2020-11-10 03:54:01+00:00,269.0,3.07,267.0,3.75,12.41,47.59359,-54.27349
2020-11-10 04:04:01+00:00,280.0,4.34,282.0,4.68,12.41,47.59359,-54.27349
2020-11-10 04:14:01+00:00,259.0,3.95,262.0,4.37,12.41,47.59359,-54.27349
2020-11-10 04:24:01+00:00,264.0,4.68,260.0,5.42,12.41,47.59359,-54.27349
2020-11-10 04:34:01+00:00,262.0,5.24,263.0,5.58,12.41,47.59359,-54.27349
2020-11-10 04:44:01+00:00,260.0,5.47,263.0,6.05,12.41,47.59359,-54.27349
2020-11-10 04:54:01+00:00,258.0,4.43,255.0,4.88,12.41,47.59359,-54.27349
2020-11-10 05:04:01+00:00,254.0,5.24,254.0,6.07,12.41,47.59359,-54.27349
2020-11-10 05:14:01+00:00,252.0,5.14,252.0,5.78,12.41,47.59359,-54.27349
2020-11-10 05:24:01+00:00,258.0,5.59,258.0,6.35,12.41,47.59359,-54.27349
2020-11-10 05:34:01+00:00,251.0,5.58,251.0,6.37,12.41,47.59359,-54.27349
2020-11-10 05:44:01+00:00,245.0,5.98,249.0,6.82,12.41,47.59359,-54.27349
2020-11-10 05:54:01+00:00,247.0,6.05,250.0,7.05,12.41,47.59359,-54.27349
2020-11-10 06:04:01+00:00,242.0,6.15,238.0,6.82,12.41,47.59359,-54.27349
2020-11-10 06:14:01+00:00,253.0,5.9,253.0,7.19,12.41,47.59359,-54.27349
2020-11-10 06:24:01+00:00,258.0,5.99,258.0,6.84,12.41,47.59359,-54.27349
2020-11-10 06:34:01+00:00,264.0,6.16,262.0,7.21,12.41,47.59359,-54.27349
2020-11-10 06:44:01+00:00,255.0,5.81,255.0,6.46,12.41,47.59359,-54.27349
2020-11-10 06:54:01+00:00,257.0,4.57,270.0,5.06,12.41,47.59359,-54.27349
2020-11-10 07:04:01+00:00,233.0,4.29,233.0,4.94,12.41,47.59359,-54.27349
2020-11-10 07:14:01+00:00,235.0,4.89,231.0,5.69,12.41,47.59359,-54.27349
2020-11-10 07:24:01+00:00,228.0,4.86,228.0,5.98,12.41,47.59359,-54.27349
2020-11-10 07:34:01+00:00,231.0,5.01,227.0,5.82,12.41,47.59359,-54.27349
2020-11-10 07:44:01+00:00,236.0,5.59,231.0,6.14,12.41,47.59359,-54.27349
2020-11-10 07:54:01+00:00,232.0,5.9,233.0,6.49,12.41,47.59359,-54.27349
2020-11-10 08:04:01+00:00,225.0,4.89,224.0,5.72,12.41,47.59359,-54.27349
2020-11-10 08:14:01+00:00,223.0,4.69,224.0,5.34,12.41,47.59359,-54.27349
2020-11-10 08:24:01+00:00,222.0,5.53,230.0,6.08,12.41,47.59359,-54.27349
2020-11-10 08:34:01+00:00,226.0,5.44,225.0,6.08,12.41,47.59359,-54.27349
2020-11-10 08:44:01+00:00,235.0,6.08,235.0,6.65,12.41,47.59359,-54.27349
2020-11-10 08:54:01+00:00,240.0,5.62,243.0,6.12,12.41,47.59359,-54.27349
2020-11-10 09:04:01+00:00,230.0,3.92,237.0,5.04,12.41,47.59359,-54.27349
2020-11-10 09:14:01+00:00,226.0,4.87,223.0,5.9,12.41,47.59359,-54.27349
2020-11-10 09:24:01+00:00,231.0,4.71,234.0,5.43,12.41,47.59359,-54.27349
2020-11-10 09:34:01+00:00,231.0,5.23,230.0,5.75,12.41,47.59359,-54.27349
2020-11-10 09:44:01+00:00,227.0,5.33,229.0,6.26,12.41,47.59359,-54.27349
2020-11-10 09:54:01+00:00,218.0,6.64,217.0,7.62,12.41,47.59359,-54.27349
2020-11-10 10:04:01+00:00,223.0,5.7,229.0,6.78,12.41,47.59359,-54.27349
2020-11-10 10:14:01+00:00,231.0,5.42,223.0,6.37,12.41,47.59359,-54.27349
2020-11-10 10:24:01+00:00,251.0,7.46,242.0,8.44,12.41,47.59359,-54.27349
2020-11-10 10:34:01+00:00,261.0,6.34,258.0,7.43,12.41,47.59359,-54.27349
2020-11-10 10:44:01+00:00,253.0,5.71,258.0,7.27,12.41,47.59359,-54.27349
2020-11-10 10:54:01+00:00,250.0,7.47,253.0,8.99,12.41,47.59359,-54.27349
2020-11-10 11:04:01+00:00,231.0,7.21,236.0,8.47,12.41,47.59359,-54.27349
2020-11-10 11:14:01+00:00,232.0,8.36,233.0,9.46,12.41,47.59359,-54.27349
2020-11-10 11:24:01+00:00,233.0,7.2,230.0,8.23,12.41,47.59359,-54.27349
2020-11-10 11:34:01+00:00,240.0,6.74,242.0,7.77,12.41,47.59359,-54.27349
2020-11-10 11:44:01+00:00,236.0,7.27,231.0,8.38,12.41,47.59359,-54.27349
2020-11-10 11:54:01+00:00,241.0,8.91,247.0,10.28,12.41,47.59359,-54.27349
2020-11-10 12:04:01+00:00,245.0,9.38,246.0,10.73,12.41,47.59359,-54.27349
2020-11-10 12:14:01+00:00,254.0,10.28,254.0,11.7,14.08,47.59359,-54.27349
2020-11-10 12:24:01+00:00,257.0,9.19,257.0,10.38,14.08,47.59359,-54.27349
2020-11-10 12:34:01+00:00,260.0,9.58,266.0,10.42,14.08,47.59359,-54.27349
2020-11-10 12:44:01+00:00,260.0,10.48,263.0,13.07,14.08,47.59359,-54.27349
2020-11-10 12:54:01+00:00,253.0,10.45,250.0,11.53,14.08,47.59359,-54.27349
2020-11-10 13:04:01+00:00,242.0,9.06,240.0,10.06,14.08,47.59359,-54.27349
2020-11-10 13:14:01+00:00,243.0,11.15,242.0,12.12,13.13,47.59359,-54.27349
2020-11-10 13:24:01+00:00,243.0,10.99,248.0,13.42,13.13,47.59359,-54.27349
2020-11-10 13:34:01+00:00,233.0,11.6,235.0,13.34,13.13,47.59359,-54.27349
2020-11-10 13:44:01+00:00,233.0,12.76,236.0,14.5,13.13,47.59359,-54.27349
2020-11-10 13:54:01+00:00,236.0,12.36,234.0,14.22,13.13,47.59359,-54.27349
2020-11-10 14:04:01+00:00,238.0,10.64,236.0,12.15,13.13,47.59359,-54.27349
2020-11-10 14:14:01+00:00,246.0,10.81,246.0,12.13,13.6,47.59359,-54.27349
2020-11-10 14:24:01+00:00,244.0,11.76,240.0,13.11,13.6,47.59359,-54.27349
2020-11-10 14:34:01+00:00,241.0,10.49,245.0,11.67,13.6,47.59359,-54.27349
2020-11-10 14:44:01+00:00,239.0,10.69,243.0,11.98,13.6,47.59359,-54.27349
2020-11-10 14:54:01+00:00,235.0,9.63,238.0,10.7,13.6,47.59359,-54.27349
2020-11-10 15:04:01+00:00,235.0,8.39,233.0,10.01,13.6,47.59359,-54.27349
2020-11-10 15:14:01+00:00,232.0,8.09,240.0,9.67,13.21,47.59359,-54.27349
2020-11-10 15:24:01+00:00,233.0,7.62,218.0,9.9,13.21,47.59359,-54.27349
2020-11-10 15:34:01+00:00,229.0,9.29,230.0,11.15,13.21,47.59359,-54.27349
2020-11-10 15:44:01+00:00,215.0,9.91,218.0,11.93,13.21,47.59359,-54.27349
2020-11-10 15:54:01+00:00,222.0,9.41,216.0,10.76,13.21,47.59359,-54.27349
2020-11-10 16:04:01+00:00,223.0,10.24,230.0,12.39,13.21,47.59359,-54.27349
2020-11-10 16:14:01+00:00,219.0,11.98,219.0,13.63,13.68,47.59359,-54.27349
2020-11-10 16:24:01+00:00,215.0,11.45,213.0,12.73,13.68,47.59359,-54.27349
2020-11-10 16:34:01+00:00,216.0,11.73,216.0,12.72,13.68,47.59359,-54.27349
2020-11-10 16:44:01+00:00,220.0,11.55,217.0,12.72,13.68,47.59359,-54.27349
2020-11-10 16:54:01+00:00,221.0,11.54,220.0,13.43,13.68,47.59359,-54.27349
2020-11-10 17:04:01+00:00,218.0,11.63,224.0,13.35,13.68,47.59359,-54.27349
2020-11-10 17:14:01+00:00,219.0,10.6,223.0,11.74,13.29,47.59359,-54.27349
2020-11-10 17:24:01+00:00,221.0,10.26,224.0,11.53,13.29,47.59359,-54.27349
2020-11-10 17:34:01+00:00,218.0,9.07,218.0,11.31,13.29,47.59359,-54.27349
2020-11-10 17:44:01+00:00,217.0,9.69,216.0,10.96,13.29,47.59359,-54.27349
2020-11-10 17:54:01+00:00,225.0,8.97,226.0,9.91,13.29,47.59359,-54.27349
2020-11-10 18:04:01+00:00,225.0,10.21,228.0,11.38,13.29,47.59359,-54.27349
2020-11-10 18:14:01+00:00,225.0,9.48,233.0,11.26,13.05,47.59359,-54.27349
2020-11-10 18:24:01+00:00,221.0,8.57,222.0,9.49,13.05,47.59359,-54.27349
2020-11-10 18:34:01+00:00,221.0,8.31,217.0,9.78,13.05,47.59359,-54.27349
2020-11-10 18:44:01+00:00,219.0,8.51,209.0,10.89,13.05,47.59359,-54.27349
2020-11-10 18:54:01+00:00,218.0,9.26,218.0,10.51,13.05,47.59359,-54.27349
2020-11-10 19:04:01+00:00,217.0,9.81,216.0,10.93,13.05,47.59359,-54.27349
2020-11-10 19:14:01+00:00,216.0,9.93,219.0,11.39,12.81,47.59359,-54.27349
2020-11-10 19:24:01+00:00,216.0,9.7,216.0,10.96,12.81,47.59359,-54.27349
2020-11-10 19:34:01+00:00,217.0,9.11,218.0,10.47,12.81,47.59359,-54.27349
2020-11-10 19:44:01+00:00,220.0,8.4,226.0,9.54,12.81,47.59359,-54.27349
2020-11-10 19:54:01+00:00,221.0,8.37,222.0,9.72,12.81,47.59359,-54.27349
2020-11-10 20:04:01+00:00,220.0,8.22,219.0,9.31,12.81,47.59359,-54.27349
2020-11-10 20:14:01+00:00,216.0,8.57,218.0,9.69,12.73,47.59359,-54.27349
2020-11-10 20:24:01+00:00,214.0,9.98,209.0,12.81,12.73,47.59359,-54.27349
2020-11-10 20:34:01+00:00,218.0,9.05,218.0,10.32,12.73,47.59359,-54.27349
2020-11-10 20:44:01+00:00,217.0,8.18,216.0,9.74,12.73,47.59359,-54.27349
2020-11-10 20:54:01+00:00,217.0,7.58,221.0,8.17,12.73,47.59359,-54.27349
2020-11-10 21:04:01+00:00,218.0,7.62,218.0,8.92,12.73,47.59359,-54.27349
2020-11-10 21:14:01+00:00,213.0,7.8,214.0,9.14,12.65,47.59359,-54.27349
2020-11-10 21:24:01+00:00,219.0,7.54,225.0,8.9,12.65,47.59359,-54.27349
2020-11-10 21:34:01+00:00,215.0,7.2,214.0,8.03,12.65,47.59359,-54.27349
2020-11-10 21:44:01+00:00,217.0,8.57,217.0,9.61,12.65,47.59359,-54.27349
2020-11-10 21:54:01+00:00,216.0,8.95,212.0,10.27,12.65,47.59359,-54.27349
2020-11-10 22:04:01+00:00,219.0,10.17,217.0,11.0,12.65,47.59359,-54.27349
2020-11-10 22:14:01+00:00,218.0,8.77,216.0,9.59,12.65,47.59359,-54.27349
2020-11-10 22:24:01+00:00,218.0,9.7,215.0,11.16,12.65,47.59359,-54.27349
2020-11-10 22:34:01+00:00,219.0,9.57,217.0,10.45,12.65,47.59359,-54.27349
2020-11-10 22:44:01+00:00,228.0,8.59,232.0,10.42,12.65,47.59359,-54.27349
2020-11-10 22:54:01+00:00,218.0,9.71,219.0,10.99,12.65,47.59359,-54.27349
2020-11-10 23:04:01+00:00,216.0,9.74,219.0,11.54,12.65,47.59359,-54.27349
2020-11-10 23:14:01+00:00,212.0,9.93,214.0,10.84,12.65,47.59359,-54.27349
2020-11-10 23:24:01+00:00,211.0,10.58,212.0,11.51,12.65,47.59359,-54.27349
2020-11-10 23:34:01+00:00,209.0,10.31,210.0,11.01,12.65,47.59359,-54.27349
2020-11-10 23:44:01+00:00,204.0,9.73,203.0,10.58,12.65,47.59359,-54.27349
2020-11-10 23:54:01+00:00,201.0,10.26,206.0,11.28,12.65,47.59359,-54.27349
